星链-5009 (STARLINK-5009 )

导读

STARLINK-5009是美国SpaceX星链项目的低轨通信卫星,属于第二代星链v1.5批次,2022年9月24日由美国发射入轨。它运行在近地轨道,配备星间激光链路和相控阵通信天线,依托氪离子推进器完成轨道维持与自主避碰,为全球提供低延迟高速宽带互联网服务,是星链全球卫星星座组网的重要组成部分,拓展了偏远地区、移动场景的网络覆盖能力。

Basic Information
目录编号:
53928
目录名称:
STARLINK-5009
国际标识:
2022-119AU
轨道中心:
EARTH
卫星名称:
星链-5009
卫星全名:
星链-5009 (STARLINK-5009 )
卫星状态:
在轨 (已飞行1449 天)
发射日期:
2022-09-24 UTC
国别 :
美国 (US)
星等 :
--
This satellite is enrolled in the Space Conjunction Data Service (SCDS) and the current flight risk assessment level is: No High Risk
Orbit Information
数据来源 国际轨道数据 AOE轨道数据
星历时间 2026-09-12T11:15:38+0800
8小时前
查看轨道信息
2026-09-06T22:00:00+0800
5天前
查看轨道信息
半长轴 6917.885km 6917.886km
偏心率 0.0001567 0.0001591
轨道倾角 53.160° 53.155°
近地点辐角 84.682° 81.350°
升交点赤经 186.419° 211.378°
平近点角 275.435° 342.052°
近地点 538.663km 538.648km
远地点 540.833km 540.85km
周期 95.438分钟 95.438分钟
每日圈数 15.088385 15.088384
Detailed Information
固有亮度:
5
最大亮度:
2.5
卫星平台:
Starlink v1.5
覆盖范围:
全球
运营商:
太空探索技术公司
运营商所在国:
美国
制造商(研发单位):
太空探索技术公司
制造商所在国:
美国
使用方式:
暂无
Satellite Introduction
星链(Starlink)计划是由太空探索技术公司(SpaceX)提出的一个巨型低轨卫星互联网星座项目,计划在2019年至2024年间在太空搭建由约1.2万颗卫星组成的“星链”网络,其中1584颗将部署在地球上空550千米处的近地轨道,并从2020年开始工作。该卫星仍在工作。
2D Orbit Map
3D Orbit Map
Orbit Altitude Analysis Chart
Orbit Inclination Analysis Chart
Orbit Comprehensive Analysis Chart
View Comprehensive Chart
Conjunction Data List
Event ID Objects TCA Miss Dist (km) Collision Risk Probability Collision Risk Index (CRI) Action
CDM_260912-194105-392806-675322
2026-09-12T
19:41:36+0000
1.974 km
极远距离
2.85978E-6 低风险 0.44
Miss Distance Evolution Trend with All Objects
Collision Probability Evolution Trend with All Objects